Location: Écuvilly
(49.6505°N, 2.9206°E)
Time: 16:56:03
(UTC+00:00)

DNEPR-1 R/B - Pass Details

Date: 17 November 2025
Orbit: 588 x 1326 km, 64.6° (Epoch: 09 December)

Event Time Altitude Azimuth Distance (km) Brightness Sun altitude
Rises 16:29:36 0° 317° (NW) 2,866 7.2 -4.7°
Reaches altitude 10° 16:31:46 10° 314° (NW) 1,999 6.5 -5.0°
Maximum altitude 16:36:09 62° 234° (SW) 764 4.4 -5.7°
Drops below altitude 10° 16:41:13 10° 155° (SSE) 2,295 6.5 -6.4°
Sets 16:43:50 0° 152° (SSE) 3,333 7.2 -6.8°
